Regional Weather Roundup
Issued by NWS Cleveland, OH

Home | Current Version | Previous Version | Text Only | Print | Product List | Glossary Off
Versions: 1 2 3 4 5 6 7 8 9 10 11 12 13 14 15 16 17 18 19 20 21 22 23 24 25 26 27 28 29 30 31 32 33 34 35 36 37 38 39 40 41 42 43 44 45 46 47 48 49 50

000
ASUS41 KCLE 290402
RWRCLE
OHIO REGIONAL WEATHER ROUNDUP
NATIONAL WEATHER SERVICE CLEVELAND, OH
1200 AM EDT SUN MAY 29 2016

NOTE: "FAIR" INDICATES FEW OR NO CLOUDS BELOW 12,000 FEET WITH NO
SIGNIFICANT WEATHER AND/OR OBSTRUCTIONS TO VISIBILITY.

OHZ001>008-015>018-024>027-034-035-043-044-290500-
   NORTHWEST OHIO

CITY           SKY/WX    TMP DP  RH WIND       PRES   REMARKS
DEFIANCE       CLOUDY    71  64  78 S5        30.04S
FINDLAY        CLEAR     70  60  70 S6        30.06F
TOLEDO EXPRESS CLEAR     70  62  76 S5        30.04F
TOLEDO EXEC    CLEAR     70  60  70 S7        30.06S
LIMA           CLEAR     67  62  84 SE6       30.07F
$$

OHZ009>014-019>023-028>033-038-089-290500-
   NORTHEAST OHIO

CITY           SKY/WX    TMP DP  RH WIND       PRES   REMARKS
CLE-HOPKINS    CLOUDY    71  63  75 S8        30.10S
CLE-LAKEFRONT  PTCLDY    74  63  68 S12       30.06S
CUY CO. ARPT   NOT AVBL
LORAIN-ELYRIA  CLOUDY    70  65  84 S7        30.08S
ASHTABULA      PTCLDY    70  67  90 CALM      30.11R
AKRON-CANTON   MOCLDY    71  63  75 SE7       30.12S
WOOSTER        PTCLDY    65  62  90 SE5       30.12R
MANSFIELD      CLOUDY    68  65  90 S3        30.10F
YOUNGSTOWN     MOCLDY    69  64  84 CALM      30.12S
$$

OHZ042-051>053-060>062-070>072-077>081-290500-
  SOUTHWEST OHIO

CITY           SKY/WX    TMP DP  RH WIND       PRES   REMARKS
CINC-COVINGTON MOCLDY    69  63  81 S5        30.09S
CINC-LUNKEN    PTCLDY    65  65 100 CALM      30.09S
HAMILTON       CLEAR     67  64  90 CALM      30.09S
DAYTON         PTCLDY    72  63  73 S7        30.09F
WRIGHT-PAT AFB NOT AVBL
DAYTON GENERAL CLEAR     69  59  70 S3        30.08F
WILMINGTON     PTCLDY    68  63  84 S3        30.10F
$$

OHZ036-037-039>041-045>050-054>059-063>069-073>076-082>088-290500-
  CENTRAL AND SOUTHEAST OHIO

CITY           SKY/WX    TMP DP  RH WIND       PRES   REMARKS
COLUMBUS       MOCLDY    69  66  90 CALM      30.08F
OSU AIRPORT    PTCLDY    69  65  86 CALM      30.09S
BOLTON FIELD   NOT AVBL
RICKENBACK AFB NOT AVBL
NEWARK         CLOUDY    68  66  93 CALM      30.09S FOG
MARION         CLOUDY    68  65  90 S7        30.09F
LANCASTER      CLOUDY    67  65  93 SE3       30.10S FOG
ZANESVILLE     CLOUDY    71  66  84 CALM      30.11R
NEW PHILLY     CLEAR     70  65  84 CALM      30.12S
$$




USA.gov is the U.S. government's official web portal to all federal, state and local government web resources and services.